Simultaneous Nadir Overpasses (SNOs) Predictions

Prediction of SNOs between GOES-16 and LANDSAT-8 Satellite Orbit:

Table of predicted SNOs for the next 14.0 days since TLE Epoch: 3/14/2025
Index Date Time (GOES-16) GOES-16 Lat,Lon LANDSAT-8 Lat,Lon Distance(km) Time Diff (sec)
1 03/15/2025 14:56:45 0.06, -75.34 -0.90, -70.96 498.75 80
2 03/16/2025 03:18:08 -0.07, -75.32 -0.24, -76.15 93.67 80
3 03/18/2025 03:03:14 -0.06, -75.36 0.38, -73.18 247.32 80
4 03/18/2025 15:24:29 0.07, -75.40 0.70, -78.34 334.59 80
5 03/20/2025 15:12:15 0.06, -75.44 0.04, -75.38 7.12 80
6 03/22/2025 15:02:40 0.06, -75.48 -0.60, -72.41 348.91 80
7 03/23/2025 03:24:02 -0.06, -75.46 -0.51, -77.60 242.60 80
8 03/25/2025 03:09:06 -0.05, -75.51 0.11, -74.62 100.14 80
9 03/25/2025 15:30:21 0.06, -75.55 0.95, -79.79 481.89 80
10 03/27/2025 02:56:51 -0.05, -75.56 0.76, -71.66 443.80 80
11 03/27/2025 15:18:05 0.05, -75.60 0.29, -76.82 137.92 80
